User: anonymous   Login
Location: Christian Reformed Church
(43.0975°N, 93.8113°W)
Time: 03:40:15
(UTC+00:00)
Language:

Meteor 1-19 Rocket - Orbit

View from above orbital plane
View from above orbital plane
View from above satellite
View from above satellite

Ground track
Ground track

The orbit is defined by the following mean orbital elements,

1 07493U          26042.19632580 +.00000000 +00000-0 +85913-4 0 00004
2 07493  81.1628 307.3529 0080776 193.1778 166.7283 14.08015674    03
Epoch (UTC): 11 February 2026 04:42:42
Eccentricity: 0.0080776
inclination: 81.1628°
perigee height: 808 km
apogee height: 925 km
right ascension of ascending node: 307.3529°
argument of perigee: 193.1778°
revolutions per day: 14.08015674
mean anomaly at epoch: 166.7283°

The dashed part of the orbit path shows where the satellite is in the earth's shadow,  

DLR